DW3390 Weather Reports


time (UTC)temp
C
wind
direction
speed
KPH
gust
KPH
rain 1hr
cm
rain 24hr
cm
rain mn
cm
humidity
%
barometer
mb
20260508081024 11 170 1.6 11.3 0.00 0.00 0.00 77 1014.5
20260508080521 11 165 0.0 4.8 0.00 0.00 0.00 77 1014.5
20260508080021 11 165 0.0 8.0 0.00 0.00 0.00 78 1014.5
20260508075520 11 163 0.0 8.0 0.00 0.00 0.00 78 1014.4
20260508075019 11 134 0.0 8.0 0.00 0.00 0.00 78 1014.4
20260508074518 11 167 1.6 8.0 0.00 0.00 0.00 78 1014.3
20260508074019 11 167 0.0 9.7 0.00 0.00 0.00 78 1014.4
20260508073521 11 145 0.0 8.0 0.00 0.00 0.00 79 1014.4
20260508073017 11 185 0.0 8.0 0.00 0.00 0.00 80 1014.3
20260508072518 11 67 0.0 11.3 0.00 0.00 0.00 81 1014.3
20260508072017 10 135 3.2 11.3 0.00 0.00 0.00 81 1014.4
20260508071521 10 157 1.6 8.0 0.00 0.00 0.00 82 1014.3
20260508071014 10 158 1.6 8.0 0.00 0.00 0.00 83 1014.3
20260508070513 10 181 0.0 3.2 0.00 0.00 0.00 85 1014.2
20260508070012 9 165 0.0 8.0 0.00 0.00 0.00 85 1014.1
20260508065513 9 164 0.0 4.8 0.00 0.00 0.00 85 1014.0
20260508065010 9 147 1.6 9.7 0.00 0.00 0.00 86 1014.0
20260508064514 8 155 3.2 9.7 0.00 0.00 0.00 87 1014.1
20260508064014 8 161 0.0 3.2 0.00 0.00 0.00 87 1014.1
20260508063511 8 164 0.0 1.6 0.00 0.00 0.00 87 1014.1
20260508063009 8 156 0.0 4.8 0.00 0.00 0.00 87 1014.1
20260508062509 8 157 0.0 1.6 0.00 0.00 0.00 87 1014.1
20260508062009 8 157 0.0 4.8 0.00 0.00 0.00 87 1014.1
20260508061508 8 156 0.0 4.8 0.00 0.00 0.00 87 1014.0
20260508061009 8 155 0.0 0.0 0.00 0.00 0.00 87 1014.0
20260508060510 8 155 0.0 0.0 0.00 0.00 0.00 87 1014.0
20260508060016 8 163 0.0 0.0 0.00 0.00 0.00 87 1013.9
20260508055506 8 163 0.0 0.0 0.00 0.00 0.00 87 1013.9
20260508055009 8 163 0.0 0.0 0.00 0.00 0.00 87 1013.9
20260508054506 8 163 0.0 0.0 0.00 0.00 0.00 87 1013.9
20260508054003 8 175 0.0 0.0 0.00 0.00 0.00 87 1013.7
20260508053502 8 154 0.0 8.0 0.00 0.00 0.00 87 1013.7
20260508053002 8 152 0.0 8.0 0.00 0.00 0.00 87 1013.7
20260508052601 8 167 0.0 0.0 0.00 0.00 0.00 87 1013.7
20260508052059 8 167 0.0 0.0 0.00 0.00 0.00 87 1013.7
20260508052003 8 150 0.0 0.0 0.00 0.00 0.00 87 1013.7
20260508051559 8 150 0.0 0.0 0.00 0.00 0.00 87 1013.7
20260508051058 8 150 0.0 0.0 0.00 0.00 0.00 87 1013.7
20260508050558 8 150 0.0 0.0 0.00 0.00 0.00 87 1013.7
20260508050058 8 148 0.0 0.0 0.00 0.00 0.00 87 1013.7
20260508045556 8 148 0.0 0.0 0.00 0.00 0.00 86 1013.7
20260508045056 8 148 0.0 0.0 0.00 0.00 0.00 86 1013.7
20260508044600 8 148 0.0 0.0 0.00 0.00 0.00 86 1013.6
20260508044055 8 148 0.0 0.0 0.00 0.00 0.00 86 1013.7
20260508043554 8 148 0.0 0.0 0.00 0.00 0.00 85 1013.7
20260508043053 8 148 0.0 0.0 0.00 0.00 0.00 85 1013.7
20260508042553 8 148 0.0 0.0 0.00 0.00 0.00 85 1013.7
20260508042054 8 148 0.0 0.0 0.00 0.00 0.00 84 1013.7
20260508041552 8 148 0.0 0.0 0.00 0.00 0.00 84 1013.7
20260508041052 8 148 0.0 0.0 0.00 0.00 0.00 84 1013.6
20260508040552 8 148 0.0 0.0 0.00 0.00 0.00 84 1013.6
20260508040057 8 148 0.0 0.0 0.00 0.00 0.00 83 1013.6
20260508035550 8 148 0.0 0.0 0.00 0.00 0.00 83 1013.5
20260508035050 8 148 0.0 0.0 0.00 0.00 0.00 83 1013.5
20260508034550 8 148 0.0 0.0 0.00 0.00 0.00 83 1013.6
20260508034049 8 150 0.0 0.0 0.00 0.00 0.00 83 1013.6
20260508033549 8 150 0.0 0.0 0.00 0.00 0.00 83 1013.6
20260508033111 8 150 0.0 0.0 0.00 0.00 0.00 83 1013.6
20260508032548 8 150 0.0 0.0 0.00 0.00 0.00 82 1013.6
20260508032051 8 150 0.0 0.0 0.00 0.00 0.00 82 1013.6
20260508031547 8 150 0.0 0.0 0.00 0.00 0.00 82 1013.6
20260508031051 8 150 0.0 0.0 0.00 0.00 0.00 82 1013.6
20260508030547 8 150 0.0 0.0 0.00 0.00 0.00 82 1013.7
20260508030100 8 150 0.0 0.0 0.00 0.00 0.00 82 1013.6
20260508025546 8 150 0.0 0.0 0.00 0.00 0.00 82 1013.5
20260508025046 8 150 0.0 0.0 0.00 0.00 0.00 82 1013.6
20260508024608 8 150 0.0 0.0 0.00 0.00 0.00 82 1013.7
20260508024048 8 150 0.0 0.0 0.00 0.00 0.00 82 1013.7
20260508023546 8 150 0.0 0.0 0.00 0.00 0.00 82 1013.7
20260508023045 9 150 0.0 0.0 0.00 0.00 0.00 81 1013.7
20260508022544 9 150 0.0 0.0 0.00 0.00 0.00 81 1013.7
20260508022044 9 152 0.0 0.0 0.00 0.00 0.00 82 1013.7
20260508021544 9 152 0.0 0.0 0.00 0.00 0.00 81 1013.7
20260508021042 9 152 0.0 0.0 0.00 0.00 0.00 81 1013.7
20260508020542 9 152 0.0 0.0 0.00 0.00 0.00 81 1013.6
20260508020100 9 153 0.0 0.0 0.00 0.00 0.00 81 1013.7
20260508015542 9 153 0.0 1.6 0.00 0.00 0.00 81 1013.7
20260508015041 9 153 0.0 1.6 0.00 0.00 0.00 81 1013.7
20260508014543 9 153 0.0 0.0 0.00 0.00 0.00 81 1013.6
20260508014040 9 153 0.0 0.0 0.00 0.00 0.00 81 1013.6
20260508013540 9 153 0.0 0.0 0.00 0.00 0.00 80 1013.6
20260508013039 10 153 0.0 0.0 0.00 0.00 0.00 80 1013.7
20260508012539 10 153 0.0 0.0 0.00 0.00 0.00 80 1013.7
20260508012038 10 153 0.0 0.0 0.00 0.00 0.00 80 1013.7
20260508011543 10 153 0.0 0.0 0.00 0.00 0.00 80 1013.7
20260508011038 10 153 0.0 0.0 0.00 0.00 0.00 80 1013.7
20260508010536 10 153 0.0 0.0 0.00 0.00 0.00 80 1013.7
20260508010038 10 153 0.0 0.0 0.00 0.00 0.00 80 1013.8
20260508005535 10 153 0.0 0.0 0.00 0.00 0.00 80 1013.8
20260508005035 10 153 0.0 0.0 0.00 0.00 0.00 79 1013.8
20260508004535 10 153 0.0 4.8 0.00 0.00 0.00 79 1013.8
20260508004035 10 153 0.0 4.8 0.00 0.00 0.00 79 1013.7
20260508003535 10 197 0.0 0.0 0.00 0.00 0.00 79 1013.8
20260508003034 10 200 0.0 0.0 0.00 0.00 0.00 79 1013.9
20260508002532 10 197 0.0 0.0 0.00 0.00 0.00 79 1013.9
20260508002034 10 182 0.0 0.0 0.00 0.00 0.00 79 1013.9
20260508001545 10 182 0.0 0.0 0.00 0.00 0.00 78 1013.9
20260508001031 10 134 0.0 1.6 0.00 0.00 0.00 78 1013.9
20260508000532 10 136 0.0 3.2 0.00 0.00 0.00 78 1013.9
20260508000030 10 137 0.0 4.8 0.00 0.00 0.00 78 1013.8
20260507235533 11 138 0.0 3.2 0.00 0.00 0.00 77 1013.8
20260507235032 11 140 0.0 0.0 0.00 0.00 0.00 77 1013.9
20260507234529 11 139 0.0 0.0 0.00 0.00 0.00 77 1013.9
20260507234028 11 139 0.0 0.0 0.00 0.00 0.00 77 1013.9
20260507233529 11 139 0.0 1.6 0.00 0.00 0.00 77 1013.9
20260507233032 11 140 0.0 4.8 0.00 0.00 0.00 76 1013.9
20260507232527 11 140 0.0 4.8 0.00 0.00 0.00 76 1013.9
20260507232028 11 159 0.0 0.0 0.00 0.00 0.00 76 1014.0
20260507231525 11 163 0.0 0.0 0.00 0.00 0.00 76 1013.9
20260507231024 11 163 0.0 0.0 0.00 0.00 0.00 75 1013.9
20260507230524 11 162 0.0 0.0 0.00 0.00 0.00 75 1013.9
20260507230031 11 170 0.0 0.0 0.00 0.00 0.00 75 1013.9
20260507225524 11 170 0.0 1.6 0.00 0.00 0.00 75 1013.9
20260507225023 11 171 0.0 4.8 0.00 0.00 0.00 75 1014.0
20260507224529 11 175 0.0 4.8 0.00 0.00 0.00 75 1014.0
20260507224022 11 172 0.0 3.2 0.00 0.00 0.00 74 1014.1
20260507223523 11 172 0.0 3.2 0.00 0.00 0.00 74 1014.1
20260507223022 11 172 0.0 3.2 0.00 0.00 0.00 74 1014.1
20260507222524 11 173 0.0 1.6 0.00 0.00 0.00 73 1014.1
20260507222021 11 173 0.0 4.8 0.00 0.00 0.00 73 1014.1
20260507221525 11 173 0.0 4.8 0.00 0.00 0.00 72 1014.1
20260507221022 11 173 0.0 1.6 0.00 0.00 0.00 72 1014.1
20260507220521 11 173 0.0 3.2 0.00 0.00 0.00 71 1014.1
20260507220021 11 173 0.0 3.2 0.00 0.00 0.00 71 1014.1
20260507215521 11 175 0.0 3.2 0.00 0.00 0.00 70 1014.0
20260507215021 11 175 0.0 3.2 0.00 0.00 0.00 70 1014.0
20260507214521 11 175 0.0 0.0 0.00 0.00 0.00 69 1014.0
20260507214021 11 175 0.0 0.0 0.00 0.00 0.00 69 1013.9
20260507213521 11 175 0.0 3.2 0.00 0.00 0.00 69 1014.0
20260507213020 11 185 0.0 1.6 0.00 0.00 0.00 69 1013.9
20260507212521 11 186 0.0 1.6 0.00 0.00 0.00 70 1013.7
20260507212024 11 187 0.0 0.0 0.00 0.00 0.00 70 1013.7
20260507211531 11 187 0.0 0.0 0.00 0.00 0.00 69 1013.7
20260507211019 11 187 0.0 0.0 0.00 0.00 0.00 70 1013.7
20260507210519 11 187 0.0 0.0 0.00 0.00 0.00 69 1013.6
20260507210019 11 187 0.0 0.0 0.00 0.00 0.00 70 1013.5
20260507205519 12 187 0.0 0.0 0.00 0.00 0.00 69 1013.6
20260507205022 12 187 0.0 0.0 0.00 0.00 0.00 69 1013.5
20260507204519 12 187 0.0 0.0 0.00 0.00 0.00 68 1013.5
20260507204023 12 187 0.0 0.0 0.00 0.00 0.00 68 1013.4
20260507203519 12 187 0.0 0.0 0.00 0.00 0.00 67 1013.4
20260507203019 12 187 0.0 0.0 0.00 0.00 0.00 67 1013.4
20260507202518 12 187 0.0 0.0 0.00 0.00 0.00 66 1013.3
20260507202018 12 187 0.0 0.0 0.00 0.00 0.00 66 1013.2
20260507201530 12 187 0.0 0.0 0.00 0.00 0.00 66 1013.2
20260507201018 12 187 0.0 0.0 0.00 0.00 0.00 66 1013.1
20260507200518 12 186 0.0 0.0 0.00 0.00 0.00 66 1013.1
20260507200021 12 186 0.0 0.0 0.00 0.00 0.00 65 1013.0
20260507195519 12 186 0.0 0.0 0.00 0.00 0.00 64 1012.9
20260507195017 12 203 0.0 0.0 0.00 0.00 0.00 64 1012.9
20260507194517 12 203 0.0 0.0 0.00 0.00 0.00 64 1012.9
20260507194016 13 217 0.0 0.0 0.00 0.00 0.00 63 1012.8
20260507193516 13 261 0.0 0.0 0.00 0.00 0.00 63 1012.8
20260507193020 13 265 0.0 4.8 0.00 0.00 0.00 63 1012.8
20260507192516 13 164 0.0 4.8 0.00 0.00 0.00 62 1012.8
20260507192016 13 141 0.0 4.8 0.00 0.00 0.00 61 1012.8
20260507191522 13 136 0.0 4.8 0.00 0.00 0.00 60 1012.7
20260507191014 13 155 0.0 4.8 0.00 0.00 0.00 60 1012.7
20260507190515 13 147 0.0 4.8 0.00 0.00 0.00 60 1012.7
20260507190016 13 159 0.0 1.6 0.00 0.00 0.00 60 1012.7
20260507185514 13 317 0.0 4.8 0.00 0.00 0.00 59 1012.7
20260507185017 13 146 0.0 4.8 0.00 0.00 0.00 59 1012.7
20260507184515 13 164 0.0 8.0 0.00 0.00 0.00 59 1012.7
20260507184016 13 131 0.0 8.0 0.00 0.00 0.00 58 1012.6
20260507183515 13 131 0.0 6.4 0.00 0.00 0.00 58 1012.6
20260507183014 13 162 0.0 6.4 0.00 0.00 0.00 57 1012.6
20260507182514 13 162 0.0 4.8 0.00 0.00 0.00 57 1012.6
20260507182015 13 150 0.0 3.2 0.00 0.00 0.00 56 1012.6
20260507181513 13 144 0.0 1.6 0.00 0.00 0.00 56 1012.5
20260507181013 13 172 0.0 4.8 0.00 0.00 0.00 53 1012.5
20260507180514 14 151 0.0 4.8 0.00 0.00 0.00 51 1012.5
20260507180033 14 143 0.0 3.2 0.00 0.00 0.00 51 1012.4
20260507175514 14 148 0.0 3.2 0.00 0.00 0.00 51 1012.4
20260507175015 14 149 0.0 3.2 0.00 0.00 0.00 51 1012.5
20260507174519 14 160 0.0 3.2 0.00 0.00 0.00 51 1012.4
20260507174012 14 169 0.0 3.2 0.00 0.00 0.00 51 1012.5
20260507173514 14 87 0.0 1.6 0.00 0.00 0.00 50 1012.3
20260507173018 14 153 0.0 1.6 0.00 0.00 0.00 50 1012.4
20260507172511 14 122 0.0 1.6 0.00 0.00 0.00 51 1012.4
20260507172010 14 146 0.0 3.2 0.00 0.00 0.00 51 1012.4
20260507171510 14 142 0.0 1.6 0.00 0.00 0.00 50 1012.5
20260507171014 14 144 0.0 1.6 0.00 0.00 0.00 50 1012.5
20260507170510 14 116 0.0 1.6 0.00 0.00 0.00 51 1012.5
20260507170028 14 121 0.0 1.6 0.00 0.00 0.00 51 1012.4
20260507165509 14 40 0.0 3.2 0.00 0.00 0.00 51 1012.5
20260507165009 14 46 0.0 3.2 0.00 0.00 0.00 50 1012.6
20260507164509 14 166 0.0 3.2 0.00 0.00 0.00 50 1012.6
20260507164009 14 103 0.0 3.2 0.00 0.00 0.00 50 1012.5
20260507163509 15 135 0.0 1.6 0.00 0.00 0.00 49 1012.5
20260507163008 15 50 0.0 1.6 0.00 0.00 0.00 49 1012.6
20260507162509 15 146 0.0 1.6 0.00 0.00 0.00 49 1012.6
20260507162008 15 135 0.0 1.6 0.00 0.00 0.00 49 1012.6
20260507161508 15 126 0.0 1.6 0.00 0.00 0.00 48 1012.7
20260507161007 15 115 0.0 1.6 0.00 0.00 0.00 48 1012.6
20260507160507 15 170 0.0 4.8 0.00 0.00 0.00 48 1012.7
20260507160006 15 74 0.0 4.8 0.00 0.00 0.00 48 1012.6
20260507155506 15 195 0.0 3.2 0.00 0.00 0.00 48 1012.5
20260507155006 15 212 0.0 3.2 0.00 0.00 0.00 46 1012.5
20260507154508 15 136 0.0 1.6 0.00 0.00 0.00 47 1012.5
20260507154007 15 167 0.0 1.6 0.00 0.00 0.00 47 1012.5
20260507153506 16 157 0.0 1.6 0.00 0.00 0.00 46 1012.6
20260507153005 16 96 0.0 1.6 0.00 0.00 0.00 46 1012.6
20260507152506 16 159 0.0 3.2 0.00 0.00 0.00 45 1012.6
20260507152005 16 134 0.0 14.5 0.00 0.00 0.00 46 1012.6
20260507151504 16 233 0.0 14.5 0.00 0.00 0.00 45 1012.6
20260507151008 16 207 0.0 4.8 0.00 0.00 0.00 45 1012.7
20260507150504 16 121 0.0 4.8 0.00 0.00 0.00 45 1012.8
20260507150003 16 59 0.0 4.8 0.00 0.00 0.00 46 1012.8
20260507145500 16 143 0.0 8.0 0.00 0.00 0.00 46 1012.7
20260507145100 16 84 1.6 8.0 0.00 0.00 0.00 47 1012.8
20260507144600 15 87 0.0 6.4 0.00 0.00 0.00 46 1012.8
20260507144100 16 163 0.0 6.4 0.00 0.00 0.00 46 1012.8
20260507143559 16 244 0.0 1.6 0.00 0.00 0.00 46 1012.9
20260507143106 16 255 0.0 1.6 0.00 0.00 0.00 45 1012.9
20260507142557 15 144 0.0 4.8 0.00 0.00 0.00 46 1013.0
20260507142056 15 76 0.0 8.0 0.00 0.00 0.00 46 1013.0
20260507141558 15 55 0.0 8.0 0.00 0.00 0.00 48 1013.0
20260507141055 15 78 0.0 1.6 0.00 0.00 0.00 50 1013.1
20260507140555 15 82 0.0 1.6 0.00 0.00 0.00 47 1013.1
20260507140100 15 225 0.0 1.6 0.00 0.00 0.00 45 1013.1
20260507135554 15 250 0.0 1.6 0.00 0.00 0.00 46 1013.1
20260507135054 15 101 0.0 1.6 0.00 0.00 0.00 48 1013.2
20260507134554 15 53 0.0 3.2 0.00 0.00 0.00 49 1013.2
20260507134053 15 256 0.0 4.8 0.00 0.00 0.00 48 1013.2
20260507133553 15 267 0.0 12.9 0.00 0.00 0.00 47 1013.2
20260507133053 15 155 0.0 12.9 0.00 0.00 0.00 47 1013.2
20260507132552 15 126 0.0 6.4 0.00 0.00 0.00 48 1013.2
20260507132051 15 86 0.0 6.4 0.00 0.00 0.00 49 1013.2
20260507131552 15 30 0.0 4.8 0.00 0.00 0.00 51 1013.3
20260507131049 15 68 0.0 4.8 0.00 0.00 0.00 52 1013.3
20260507130548 14 57 0.0 8.0 0.00 0.00 0.00 52 1013.3
20260507130101 13 80 0.0 8.0 0.00 0.00 0.00 53 1013.4
20260507125548 13 43 0.0 4.8 0.00 0.00 0.00 52 1013.4
20260507125047 14 48 0.0 3.2 0.00 0.00 0.00 52 1013.4
20260507124555 14 163 0.0 3.2 0.00 0.00 0.00 52 1013.5
20260507124048 14 161 0.0 4.8 0.00 0.00 0.00 52 1013.5
20260507123548 14 156 0.0 4.8 0.00 0.00 0.00 53 1013.6
20260507123047 14 146 0.0 4.8 0.00 0.00 0.00 52 1013.6
20260507122546 14 172 0.0 0.0 0.00 0.00 0.00 52 1013.6
20260507122048 14 219 0.0 4.8 0.00 0.00 0.00 52 1013.6
20260507121552 15 219 0.0 4.8 0.00 0.00 0.00 51 1013.6
20260507121045 15 132 0.0 4.8 0.00 0.00 0.00 52 1013.6
20260507120545 15 161 0.0 3.2 0.00 0.00 0.00 53 1013.7
20260507120045 15 146 0.0 4.8 0.00 0.00 0.00 52 1013.7
20260507115544 15 192 0.0 4.8 0.00 0.00 0.00 53 1013.7
20260507115042 15 260 0.0 1.6 0.00 0.00 0.00 52 1013.7
20260507114541 15 64 0.0 1.6 0.00 0.00 0.00 53 1013.8
20260507114040 14 153 0.0 1.6 0.00 0.00 0.00 55 1013.7
20260507113542 14 60 0.0 8.0 0.00 0.00 0.00 54 1013.8
20260507113042 14 159 0.0 8.0 0.00 0.00 0.00 53 1013.8
20260507112542 14 159 0.0 1.6 0.00 0.00 0.00 54 1013.8
20260507112040 14 243 0.0 0.0 0.00 0.00 0.00 56 1013.9
20260507111536 13 246 0.0 3.2 0.00 0.00 0.00 53 1013.9
20260507111034 13 70 0.0 3.2 0.00 0.00 0.00 54 1014.0
20260507110533 13 111 0.0 3.2 0.00 0.00 0.00 56 1014.0
20260507110032 13 52 0.0 3.2 0.00 0.00 0.00 57 1014.1
20260507105531 13 36 0.0 9.7 0.00 0.00 0.00 58 1014.0
20260507105030 13 81 0.0 3.2 0.00 0.00 0.00 52 1014.0
20260507104531 13 124 0.0 3.2 0.00 0.00 0.00 55 1014.1
20260507104029 13 130 0.0 3.2 0.00 0.00 0.00 56 1014.1
20260507103532 13 140 0.0 3.2 0.00 0.00 0.00 58 1014.1
20260507103031 13 28 0.0 3.2 0.00 0.00 0.00 60 1014.2
20260507102526 12 132 0.0 1.6 0.00 0.00 0.00 60 1014.1
20260507102024 12 108 0.0 3.2 0.00 0.00 0.00 61 1014.2
20260507101523 12 55 0.0 4.8 0.00 0.00 0.00 66 1014.2
20260507101024 12 165 0.0 4.8 0.00 0.00 0.00 65 1014.2
20260507100520 12 178 0.0 4.8 0.00 0.00 0.00 65 1014.2
20260507100019 12 154 0.0 11.3 0.00 0.00 0.00 67 1014.2
20260507095519 12 53 0.0 11.3 0.00 0.00 0.00 69 1014.3
20260507095018 12 141 0.0 6.4 0.00 0.00 0.00 71 1014.2
20260507094517 11 241 0.0 3.2 0.00 0.00 0.00 74 1014.2
20260507094015 11 162 0.0 4.8 0.00 0.00 0.00 74 1014.3
20260507093517 11 150 0.0 6.4 0.00 0.00 0.00 73 1014.3
20260507093015 11 146 0.0 6.4 0.00 0.00 0.00 73 1014.3
20260507092511 11 227 0.0 4.8 0.00 0.00 0.00 75 1014.3
20260507092011 10 209 0.0 8.0 0.00 0.00 0.00 76 1014.3
20260507091510 10 147 0.0 4.8 0.00 0.00 0.00 77 1014.3
20260507091009 10 215 0.0 4.8 0.00 0.00 0.00 77 1014.4
20260507090507 10 194 0.0 4.8 0.00 0.00 0.00 78 1014.3
20260507090006 10 188 0.0 3.2 0.00 0.00 0.00 80 1014.3
20260507085505 10 25 0.0 8.0 0.00 0.00 0.00 80 1014.3
20260507085007 10 275 1.6 8.0 0.00 0.00 0.00 81 1014.4
20260507084510 9 130 0.0 6.4 0.00 0.00 0.00 82 1014.4
20260507084001 9 140 0.0 6.4 0.00 0.00 0.00 84 1014.5
20260507083601 8 271 0.0 4.8 0.00 0.00 0.00 85 1014.4
20260507083058 8 269 0.0 6.4 0.00 0.00 0.00 85 1014.4
20260507082556 8 239 1.6 6.4 0.00 0.00 0.00 86 1014.4
20260507082055 8 142 0.0 3.2 0.00 0.00 0.00 88 1014.4
20260507081558 8 140 0.0 4.8 0.00 0.00 0.00 88 1014.4